Miscellaneous Local Product
Issued by NWS Hastings, NE

Home | Current Version | Previous Version | Text Only | Print | Product List | Glossary On
Versions: 1 2 3 4 5 6 7 8 9 10 11 12 13 14 15 16 17 18 19 20 21 22 23 24 25 26 27 28 29 30 31 32 33 34 35 36 37 38 39 40 41 42 43 44 45 46 47 48 49 50
000
AXUS43 KGID 061802
MISGRI

GID CWA HOURLY WEATHER ROUNDUP
NATIONAL WEATHER SERVICE HASTINGS NE
100 PM CDT MON JUL 06 2015

NOTE: "FAIR" INDICATES FEW OR NO CLOUDS BELOW 12,000 FEET WITH NO
SIGNIFICANT WEATHER AND/OR OBSTRUCTIONS TO VISIBILITY.

...SOUTH CENTRAL NEBRASKA...

CITY           SKY/WX    TMP DP  RH WIND       PRES   REMARKS
GRAND ISLAND   CLOUDY    73  64  73 N17       30.01R
HASTINGS       CLOUDY    72  65  78 N18G24    29.99S
KEARNEY        CLOUDY    70  61  73 N21G31    30.04R
ORD            PTSUNNY   74  58  57 N21G28    30.05R HAZE
YORK           CLOUDY    72  68  88 N14G20    29.97R
AURORA         CLOUDY    73  67  82 N23       29.99S
LEXINGTON      CLOUDY    71  63  77 N17       30.08R
HOLDREGE       CLOUDY    68  63  82 N20G26    30.04R
HEBRON         RAIN      73  70  90 N7        29.93S

...NEBRASKA PANHANDLE...

CITY           SKY/WX    TMP DP  RH WIND       PRES   REMARKS
CHADRON        CLOUDY    67  56  67 N8        30.24F HAZE
ALLIANCE       PTSUNNY   67  55  65 N17       30.23R HAZE
SCOTTSBLUFF    CLOUDY    66  53  63 N10       30.26R HAZE
SIDNEY         CLOUDY    67  54  63 N17G24    30.24R HAZE

...WESTERN AND NORTH CENTRAL NEBRASKA...

CITY           SKY/WX    TMP DP  RH WIND       PRES   REMARKS
VALENTINE      CLOUDY    72  54  53 N17G28    30.15S HAZE
AINSWORTH        N/A     72  57  59 N21G30    30.14S HAZE
ONEILL         CLOUDY    71  58  63 N20       30.07R HAZE
BROKEN BOW     MOSUNNY   74  60  61 N18G26    30.08S HAZE
IMPERIAL       CLOUDY    71  56  58 N17       30.16R
NORTH PLATTE   CLOUDY    71  57  61 NE14G24   30.13R
MCCOOK         CLOUDY    70  60  70 N24G33    30.09R

...EASTERN NEBRASKA...

CITY           SKY/WX    TMP DP  RH WIND       PRES   REMARKS
NORFOLK        CLOUDY    74  65  73 N17G26    29.99R
SO SIOUX CITY  LGT RAIN  72  68  87 N16       29.94R
TEKAMAH        CLOUDY    77  70  79 NW8       29.91S
ALBION         PTSUNNY   73  62  69 N17G23    30.00R
OMAHA EPPLEY   LGT RAIN  75  73  93 N6        29.91R FOG
OFFUTT AFB     LGT RAIN  75  72  88 NW7       29.90R
MILLARD        HVY RAIN  73  71  92 CALM      29.92R
LINCOLN        CLOUDY    75  72  90 N10       29.93S
NEBRASKA CITY  CLOUDY    77  74  91 N5        29.89S
BEATRICE       TSTM      73  72  95 N6        29.93R VSB 1/2
FALLS CITY     CLOUDY    85  73  67 SW7       29.86S HX  91

...NORTHERN KANSAS...

CITY           SKY/WX    TMP DP  RH WIND       PRES   REMARKS
GOODLAND       CLOUDY    65  59  81 N17G26    30.15R
HILL CITY      CLOUDY    73  65  75 N21G29    30.02R
NORTON         CLOUDY    70  59  68 N18G28    30.04R
PHILLIPSBURG   CLOUDY    73  66  78 N18G26    30.00R
SMITH CENTER   CLOUDY    72  66  83 N15G30    29.98R
HAYS           CLOUDY    73  64  73 N21       29.97R
RUSSELL        RAIN      74  72  93 N10       29.93S FOG
CONCORDIA      LGT RAIN  73  71  93 N8        29.91R FOG
SALINA         CLOUDY    90  68  48 W6        29.86S HX  94
TOPEKA         SUNNY     90  73  57 S15       29.86F HX  98



USA.gov is the U.S. government's official web portal to all federal, state and local government web resources and services.